St. Johns, AZ

10:02 PM MST on October 16, 2017 (GMT -0700)
Saint Johns Industrial

Weather History for KSJN - January, 2012

Change the Weather History Date:

Sunday, January 22, 2012

  Actual Average (KLSB) Record (KLSB)
Temperature  
Mean Temperature 33 °F -  
Max Temperature 43 °F 57 °F 68 °F (2013)
Min Temperature 23 °F 26 °F 21 °F (2016)
Degree Days  
Heating Degree Days 32    
Moisture  
Dew Point 15 °F    
Average Humidity 46    
Maximum Humidity 64    
Minimum Humidity 28    
Precipitation  
Precipitation 0.00 in - - ()
Sea Level Pressure  
Sea Level Pressure 30.00 in    
Wind  
Wind Speed 14 mph (West)    
Max Wind Speed 21 mph    
Max Gust Speed 29 mph    
Visibility 10 miles    
Events      
Averages and records for this station are not official NWS values.
T = Trace of Precipitation, MM = Missing Value Source: NWS Daily Summary

Daily Weather History Graph

Daily Weather History Graph

Search for Another Location

Airport or City:

Trip Planner

Search our weather history database for the weather conditions in past years. The results will help you decide how hot, cold, wet, or windy it might be!

Date:

Astronomy

Jan. 22, 2012 Rise Set
Actual Time 7:21 AM MST 5:36 PM MST
Civil Twilight 6:54 AM MST 6:03 PM MST
Nautical Twilight 6:24 AM MST 6:34 PM MST
Astronomical Twilight 5:54 AM MST 7:04 PM MST
Moon 6:40 AM MST (1/22) 5:21 PM MST (1/22)
Length of Visible Light 11h 09m
Length of Day
10h 15m
Waning Crescent, 0% of the Moon is Illuminated
Jan 22
Waning Crescent
Jan 23
New
Jan 30
First Quarter
Feb 7
Full
Feb 14
Last Quarter

Hourly Weather History & Observations

Time (MST) Temp. Windchill Dew Point Humidity Pressure Visibility Wind Dir Wind Speed Gust Speed Precip Events Conditions
12:54 AM 34.0 °F 22.4 °F 23.0 °F 64% 29.76 in 10.0 mi WNW 20.7 mph 28.8 mph N/A   Clear
1:54 AM 34.0 °F 22.7 °F 19.0 °F 54% 29.78 in 10.0 mi West 19.6 mph - N/A   Mostly Cloudy
2:54 AM 33.1 °F 22.2 °F 18.0 °F 54% 29.82 in 10.0 mi West 17.3 mph - N/A   Clear
3:54 AM 33.1 °F 22.2 °F 17.1 °F 52% 29.83 in 10.0 mi WSW 17.3 mph 28.8 mph N/A   Clear
4:54 AM 33.1 °F 21.2 °F 17.1 °F 52% 29.86 in 10.0 mi West 20.7 mph 26.5 mph N/A   Clear
5:54 AM 30.9 °F 21.2 °F 17.1 °F 57% 29.90 in 10.0 mi West 12.7 mph - N/A   Clear
6:54 AM 28.9 °F 19.8 °F 17.1 °F 61% 29.95 in 10.0 mi WSW 10.4 mph - N/A   Clear
7:54 AM 30.0 °F 21.7 °F 17.1 °F 59% 29.97 in 10.0 mi WSW 9.2 mph - N/A   Clear
8:54 AM 35.1 °F 24.8 °F 18.0 °F 50% 29.99 in 10.0 mi West 17.3 mph 23.0 mph N/A   Clear
9:54 AM 37.9 °F 30.0 °F 18.0 °F 45% 30.01 in 10.0 mi WSW 12.7 mph 19.6 mph N/A   Clear
10:54 AM 39.9 °F 32.5 °F 16.0 °F 38% 30.06 in 10.0 mi West 12.7 mph - N/A   Clear
11:54 AM 42.1 °F 35.2 °F 12.9 °F 31% 30.04 in 10.0 mi WNW 12.7 mph - N/A   Clear
12:54 PM 42.1 °F 37.1 °F 12.9 °F 31% 30.03 in 10.0 mi West 8.1 mph - N/A   Clear
1:54 PM 43.0 °F 36.0 °F 12.0 °F 28% 30.02 in 10.0 mi West 13.8 mph - N/A   Clear
2:54 PM 43.0 °F 36.4 °F 12.0 °F 28% 30.04 in 10.0 mi West 12.7 mph - N/A   Clear
3:54 PM 43.0 °F 37.7 °F 12.0 °F 28% 30.06 in 10.0 mi WNW 9.2 mph - N/A   Clear
4:54 PM 41.0 °F 35.8 °F 12.2 °F 31% 30.12 in 10.0 mi NW 8.1 mph - N/A   Scattered Clouds
5:54 PM 39.0 °F 36.8 °F 12.9 °F 34% 30.12 in 10.0 mi NNW 3.5 mph - N/A   Partly Cloudy
6:54 PM 37.9 °F - 14.0 °F 38% 30.13 in 10.0 mi Calm Calm - N/A   Mostly Cloudy
7:54 PM 34.0 °F - 12.9 °F 42% 30.15 in 10.0 mi Calm Calm - N/A   Clear
8:54 PM 32.0 °F 28.7 °F 14.0 °F 48% 30.10 in 10.0 mi ESE 3.5 mph - N/A   Clear
9:54 PM 26.1 °F - 12.9 °F 58% 30.12 in 10.0 mi Calm Calm - N/A   Clear
10:54 PM 23.0 °F - 12.0 °F 63% 30.11 in 8.0 mi Calm Calm - N/A   Clear
11:54 PM 24.1 °F - 12.9 °F 62% 30.10 in 10.0 mi Calm Calm - N/A   Clear